Starlink 33816

operational
NORAD ID: 63677 Int'l Des: 2025-085 Owner: SPXS Country: US Constellation: starlink
LEOCIRCULAR

Über Starlink 33816

Beschreibung wird geladen...

Live-Position

3D-Globus wird geladen...

Nächste Überflüge

Höhenverlauf

Altitude vs Time

uPlot chart will show altitude changes over time

Zweizeiliger Elementsatz

1 63677U 25085P 25349.83425878 .00024629 00000-0 90096-3 0 9997
2 63677 43.0011 144.6339 0001096 269.3516 90.7210 15.27601010 36144
Epoch: 15. Dez. 2025 • Age: 9 hours

Aktueller Status

Höhe 493.5 km
Geschwindigkeit 7.62 km/s
Subsatellitenpunkt -38.06°S, 139.92°W
Startdatum 28. Apr. 2025
Alter 0.6 years
Typ internet

Technische Details

Klassifizierung Payload
Masse 575.00 kg
Trockenmasse 530.00 kg
Gesamtmasse 575.00 kg
Länge 0.30 m
Durchmesser 4.10 m
Spannweite 29.00 m
Form Box + pan
Hersteller SPXS
Bus-Typ Starlink V2MO
Phasenstatus In Orbit
Besitzer/Staat SPXS/US

Große Konstellationen

Loading constellations...